TimeCST,TemperatureF,Dew PointF,Humidity,Sea Level PressureIn,VisibilityMPH,Wind Direction,Wind SpeedMPH,Gust SpeedMPH,PrecipitationIn,Events,Conditions,WindDirDegrees,DateUTC
12:14 AM,32.0,26.6,80,30.04,6.0,NE,16.1,26.5,0.00,Snow,Light Snow,50,2012-12-25 06:14:00
12:53 AM,32.0,26.1,79,30.03,5.0,NE,18.4,24.2,0.00,Snow,Light Snow,50,2012-12-25 06:53:00
1:06 AM,32.0,26.6,80,30.04,5.0,NE,16.1,24.2,0.00,Snow,Light Snow,50,2012-12-25 07:06:00
1:35 AM,30.2,24.8,80,30.03,6.0,NE,19.6,25.3,0.00,Snow,Light Snow,50,2012-12-25 07:35:00
1:53 AM,30.9,25.0,79,30.04,5.0,NE,17.3,24.2,0.00,Snow,Light Snow,40,2012-12-25 07:53:00
2:07 AM,30.2,26.6,86,30.04,5.0,NE,15.0,23.0,0.00,Snow,Light Snow,40,2012-12-25 08:07:00
2:53 AM,32.0,26.1,79,30.07,5.0,NE,13.8,-,0.00,Snow,Light Snow,40,2012-12-25 08:53:00
3:53 AM,30.9,26.1,82,30.05,5.0,NE,17.3,-,0.00,Snow,Light Snow,40,2012-12-25 09:53:00
4:53 AM,30.9,25.0,79,30.01,6.0,NE,17.3,33.4,0.00,Snow,Light Snow,50,2012-12-25 10:53:00
5:53 AM,30.0,25.0,82,30.04,6.0,NE,17.3,24.2,0.00,Snow,Light Snow,50,2012-12-25 11:53:00
6:53 AM,30.9,25.0,79,30.05,6.0,NE,20.7,27.6,0.00,Snow,Light Snow,40,2012-12-25 12:53:00
7:53 AM,32.0,26.1,79,30.07,4.0,NE,16.1,26.5,0.00,Snow,Light Snow,40,2012-12-25 13:53:00
8:53 AM,32.0,26.1,79,30.08,5.0,NNE,17.3,24.2,0.00,Snow,Light Snow,30,2012-12-25 14:53:00
9:53 AM,32.0,26.1,79,30.08,5.0,NE,20.7,33.4,0.00,Snow,Light Snow,50,2012-12-25 15:53:00
10:53 AM,32.0,26.1,79,30.06,5.0,NE,20.7,28.8,0.00,Snow,Light Snow,40,2012-12-25 16:53:00
11:53 AM,33.1,27.0,78,29.99,5.0,NE,20.7,28.8,0.00,Snow,Light Snow,40,2012-12-25 17:53:00
12:53 PM,33.1,27.0,78,29.90,6.0,NE,25.3,38.0,0.00,Snow,Light Snow,50,2012-12-25 18:53:00
1:49 PM,33.8,28.4,81,29.86,6.0,NE,23.0,35.7,0.00,Snow,Light Snow,40,2012-12-25 19:49:00
1:53 PM,35.1,28.0,76,29.86,6.0,NE,23.0,35.7,0.00,Snow,Light Snow,50,2012-12-25 19:53:00
2:53 PM,35.1,28.0,76,29.90,5.0,NE,19.6,28.8,0.00,Snow,Light Snow,40,2012-12-25 20:53:00
3:16 PM,33.8,28.4,81,29.89,2.5,NE,18.4,28.8,0.02,Snow,Light Snow,40,2012-12-25 21:16:00
3:53 PM,34.0,30.0,85,29.90,2.5,NE,20.7,29.9,0.11,Rain,Rain,40,2012-12-25 21:53:00
4:38 PM,33.8,30.2,87,29.83,3.0,NE,23.0,32.2,0.09,Snow,Light Snow,40,2012-12-25 22:38:00
4:50 PM,33.8,30.2,87,29.82,1.8,NE,21.9,29.9,0.10,Snow,Light Snow,40,2012-12-25 22:50:00
4:53 PM,34.0,30.9,89,29.82,1.8,NE,24.2,32.2,0.10,Snow,Light Snow,40,2012-12-25 22:53:00
4:57 PM,33.8,30.2,87,29.81,1.8,NE,25.3,32.2,0.00,Snow,Light Snow,40,2012-12-25 22:57:00
5:04 PM,33.8,30.2,87,29.80,2.0,NE,27.6,48.3,0.00,Snow,Light Snow,40,2012-12-25 23:04:00
5:15 PM,33.8,30.2,87,29.80,4.0,NE,24.2,38.0,0.00,Snow,Light Snow,40,2012-12-25 23:15:00
5:53 PM,34.0,30.0,85,29.75,3.0,NE,32.2,42.6,0.00,Snow,Light Snow,40,2012-12-25 23:53:00
6:21 PM,33.8,30.2,87,29.73,5.0,NNE,32.2,46.0,0.00,Snow,Light Snow,30,2012-12-26 00:21:00
6:29 PM,33.8,30.2,87,29.72,6.0,NNE,25.3,46.0,0.00,Snow,Light Snow,30,2012-12-26 00:29:00
6:53 PM,34.0,30.0,85,29.72,4.0,NNE,29.9,46.0,0.00,Snow,Light Snow,30,2012-12-26 00:53:00
7:14 PM,33.8,30.2,87,29.70,2.5,NE,28.8,42.6,0.00,Snow,Light Snow,40,2012-12-26 01:14:00
7:24 PM,33.8,30.2,87,29.69,3.0,NNE,23.0,43.7,0.00,Snow,Light Snow,30,2012-12-26 01:24:00
7:51 PM,33.8,30.2,87,29.67,2.5,NNE,25.3,39.1,0.00,Snow,Light Snow,20,2012-12-26 01:51:00
7:53 PM,34.0,30.0,85,29.68,2.5,NNE,24.2,39.1,0.00,Snow,Light Snow,20,2012-12-26 01:53:00
8:20 PM,33.8,30.2,87,29.65,3.0,North,24.2,42.6,0.00,Snow,Light Snow,10,2012-12-26 02:20:00
8:32 PM,33.8,30.2,87,29.65,2.5,North,24.2,42.6,0.00,Snow,Light Snow,10,2012-12-26 02:32:00
8:38 PM,33.8,30.2,87,29.65,3.0,North,28.8,42.6,0.00,Snow,Light Snow,10,2012-12-26 02:38:00
8:53 PM,34.0,30.0,85,29.67,3.0,North,27.6,41.4,0.00,Snow,Light Snow,10,2012-12-26 02:53:00
9:04 PM,33.8,28.4,81,29.67,2.5,North,20.7,39.1,0.00,Snow,Light Snow,10,2012-12-26 03:04:00
9:31 PM,33.8,30.2,87,29.68,3.0,North,19.6,36.8,0.01,Snow,Light Snow,10,2012-12-26 03:31:00
9:38 PM,33.8,30.2,87,29.68,2.5,NNE,21.9,36.8,0.01,Snow-Thunderstorm,Light Snow,20,2012-12-26 03:38:00
9:53 PM,33.1,30.0,89,29.68,1.8,North,20.7,34.5,0.01,Snow-Thunderstorm,Light Snow,10,2012-12-26 03:53:00
9:57 PM,33.8,30.2,87,29.68,1.8,North,20.7,33.4,0.00,Snow,Light Snow,10,2012-12-26 03:57:00
10:14 PM,33.8,30.2,87,29.68,1.8,North,24.2,35.7,0.00,Snow-Thunderstorm,Light Snow,10,2012-12-26 04:14:00
10:21 PM,33.8,30.2,87,29.68,1.8,NNE,19.6,33.4,0.00,Snow-Thunderstorm,Light Snow,20,2012-12-26 04:21:00
10:29 PM,33.8,30.2,87,29.69,2.0,North,19.6,31.1,0.01,Snow-Thunderstorm,Light Snow,10,2012-12-26 04:29:00
10:36 PM,33.8,30.2,87,29.70,2.0,NNE,20.7,33.4,0.01,Snow,Light Snow,20,2012-12-26 04:36:00
10:41 PM,33.8,30.2,87,29.71,1.8,NNE,17.3,33.4,0.01,Snow,Light Snow,20,2012-12-26 04:41:00
10:53 PM,33.1,30.0,89,29.71,1.5,North,15.0,27.6,0.01,Snow,Light Snow,10,2012-12-26 04:53:00
10:59 PM,33.8,30.2,87,29.71,1.2,NNE,16.1,25.3,0.00,Snow-Thunderstorm,Light Snow,20,2012-12-26 04:59:00
11:13 PM,33.8,30.2,87,29.70,1.0,North,18.4,32.2,0.00,Snow,Light Snow,10,2012-12-26 05:13:00
11:21 PM,33.8,30.2,87,29.70,1.0,North,17.3,31.1,0.00,Snow,Light Snow,10,2012-12-26 05:21:00
11:37 PM,33.8,30.2,87,29.69,1.0,NNE,18.4,31.1,0.00,Snow-Thunderstorm,Light Snow,20,2012-12-26 05:37:00
11:53 PM,33.1,30.0,89,29.69,1.0,NNE,15.0,31.1,0.00,Snow-Thunderstorm,Light Snow,20,2012-12-26 05:53:00